Fort Polk, LA

9:33 PM CDT on October 22, 2019 (GMT -0500)
Fort Polk

Weather History for KAQV - August, 2019

Change the Weather History Date:

Tuesday, August 27, 2019

  Actual Average (WUND) Record (WUND)
Temperature  
Mean Temperature 84 °F -  
Max Temperature 93 °F - - (-1)
Min Temperature 75 °F - - (-1)
Cooling Degree Days 19    
Growing Degree Days 34 (Base 50)    
Moisture  
Dew Point 75 °F    
Average Humidity 82    
Maximum Humidity 94    
Minimum Humidity 47    
Precipitation  
Precipitation 0.24 in - - ()
Sea Level Pressure  
Sea Level Pressure 29.93 in    
Wind  
Wind Speed 4 mph (SSW)    
Max Wind Speed 9 mph    
Max Gust Speed -    
Visibility 8 miles    
Events Rain , Thunderstorm    
Averages and records for this station are not official NWS values.
T = Trace of Precipitation, MM = Missing Value Source: NWS Daily Summary

Daily Weather History Graph

Daily Weather History Graph

Search for Another Location

Airport or City:

Astronomy

Aug. 27, 2019 Rise Set
Actual Time 6:45 AM CDT 7:43 PM CDT
Civil Twilight 6:20 AM CDT 8:07 PM CDT
Nautical Twilight 5:51 AM CDT 8:37 PM CDT
Astronomical Twilight 5:21 AM CDT 9:07 PM CDT
Moon 3:24 AM CDT (8/27) 5:51 PM CDT (8/27)
Length of Visible Light 13h 46m
Length of Day
12h 57m
Waning Crescent, 11% of the Moon is Illuminated
Aug 27
Waning Crescent
Aug 30
New
Sep 5
First Quarter
Sep 13
Full
Sep 21
Last Quarter

Hourly Weather History & Observations

Time (CDT) Temp. Heat Index Dew Point Humidity Pressure Visibility Wind Dir Wind Speed Gust Speed Precip Events Conditions
12:07 AM 80.1 °F 85.8 °F 77.0 °F 90% 29.85 in 10.0 mi South 6.9 mph - N/A   Partly Cloudy
12:29 AM 80.1 °F 85.8 °F 77.0 °F 90% 29.85 in 9.0 mi Variable 6.9 mph - N/A   Mostly Cloudy
12:56 AM 80.1 °F 85.8 °F 77.0 °F 90% 29.84 in 9.0 mi Variable 5.8 mph - N/A   Overcast
1:56 AM 81.0 °F 87.9 °F 77.0 °F 88% 29.85 in 9.0 mi Variable 3.5 mph - N/A   Overcast
2:56 AM 81.0 °F 87.9 °F 77.0 °F 88% 29.86 in 9.0 mi Variable 5.8 mph - N/A   Overcast
3:16 AM 81.0 °F 87.9 °F 77.0 °F 88% 29.87 in 9.0 mi Variable 5.8 mph - N/A   Overcast
3:56 AM 81.0 °F 87.9 °F 77.0 °F 88% 29.84 in 9.0 mi South 6.9 mph - N/A   Overcast
4:56 AM 81.0 °F 87.9 °F 77.0 °F 88% 29.86 in 9.0 mi Variable 3.5 mph - N/A   Overcast
5:56 AM 81.0 °F 87.9 °F 77.0 °F 88% 29.89 in 8.0 mi Calm Calm - N/A   Overcast
6:09 AM 81.0 °F 87.9 °F 77.0 °F 88% 29.90 in 8.0 mi Calm Calm - N/A   Overcast
6:42 AM 80.1 °F 85.8 °F 77.0 °F 90% 29.92 in 7.0 mi Calm Calm - N/A   Overcast
6:56 AM 80.1 °F 85.8 °F 77.0 °F 90% 29.91 in 6.0 mi Calm Calm - N/A   Overcast
7:56 AM 82.0 °F 91.0 °F 78.1 °F 88% 29.94 in 8.0 mi Calm Calm - N/A   Mostly Cloudy
8:11 AM 82.0 °F 91.0 °F 78.1 °F 88% 29.97 in 9.0 mi Calm Calm - N/A   Mostly Cloudy
8:56 AM 82.9 °F 91.8 °F 77.0 °F 82% 29.96 in 10.0 mi Calm Calm - N/A   Mostly Cloudy
9:08 AM 84.9 °F 95.3 °F 77.0 °F 77% 29.98 in 10.0 mi Calm Calm - N/A   Mostly Cloudy
9:56 AM 81.0 °F 88.6 °F 78.1 °F 91% 29.98 in 3.0 mi SSW 3.5 mph - 0.01 in Rain , Thunderstorm Thunderstorms and Rain
9:59 AM 80.1 °F 86.4 °F 78.1 °F 94% 29.98 in 1.8 mi SSW 4.6 mph - 0.02 in Rain , Thunderstorm Thunderstorms and Rain
10:19 AM 81.0 °F 88.6 °F 78.1 °F 91% 30.00 in 3.0 mi Calm Calm - 0.12 in Rain , Thunderstorm Light Thunderstorms and Rain
10:49 AM 78.1 °F - 75.0 °F 90% 30.01 in 1.8 mi North 8.1 mph - 0.20 in Rain , Thunderstorm Thunderstorms and Rain
10:56 AM 75.9 °F - 72.0 °F 87% 29.99 in 1.8 mi North 4.6 mph - 0.21 in Rain , Thunderstorm Light Thunderstorms and Rain
10:59 AM 75.9 °F - 73.0 °F 91% 30.00 in 4.0 mi Variable 3.5 mph - 0.00 in Rain , Thunderstorm Light Thunderstorms and Rain
11:07 AM 75.9 °F - 73.0 °F 91% 30.00 in 10.0 mi Calm Calm - 0.00 in   Scattered Clouds
12:56 PM 84.0 °F 91.2 °F 73.9 °F 72% 29.99 in 10.0 mi NNE 9.2 mph - N/A   Mostly Cloudy
1:56 PM 87.1 °F 94.5 °F 73.0 °F 63% 29.95 in 10.0 mi Calm Calm - 0.02 in   Partly Cloudy
2:56 PM 88.0 °F 94.7 °F 72.0 °F 59% 29.91 in 10.0 mi North - - N/A   Clear
3:56 PM 93.0 °F 99.0 °F 70.0 °F 47% 29.91 in 10.0 mi Calm Calm - N/A   Clear
4:56 PM 91.9 °F 96.9 °F 69.1 °F 47% 29.90 in 10.0 mi Calm Calm - N/A   Clear
5:56 PM 93.0 °F 99.0 °F 70.0 °F 47% 29.89 in 10.0 mi Calm Calm - N/A   Clear
6:56 PM 89.1 °F 97.0 °F 73.0 °F 59% 29.89 in 10.0 mi Calm Calm - N/A   Clear
8:56 PM 80.1 °F 85.1 °F 75.0 °F 85% 29.94 in 10.0 mi Calm Calm - N/A   Clear
9:56 PM 79.0 °F - 75.0 °F 88% 29.96 in 10.0 mi Calm Calm - N/A   Clear
10:56 PM 79.0 °F - 73.9 °F 84% 29.97 in 10.0 mi Calm Calm - N/A   Partly Cloudy
11:27 PM 79.0 °F - 73.9 °F 84% 29.98 in 10.0 mi Calm Calm - N/A   Mostly Cloudy
11:56 PM 78.1 °F - 73.9 °F 87% 29.97 in 10.0 mi Calm Calm - N/A   Scattered Clouds